Kuchera_Ratio
0.0 0.0 0.0 0.0 0.0 0.0 0.0 0.0 0.0 0.0 0.0 0.0 0.0 0.0 0.0 0.0 0.0 0.0 0.0 0.0 0.0 0.0 0.0 0.0 0.0 0.0 0.0
0.0 0.0 0.0 0.0 0.0 0.0 0.0 0.0 0.0 0.0 0.0 0.0 0.0 0.0 0.0 0.0 0.0 0.0 0.0 0.0 0.0 0.0 0.0 0.0 0.0 0.0 0.0
2.8 0.2 0.0 0.0 0.0 0.0 0.0 0.0 0.0 0.0 0.0 0.0 0.0 0.0 0.0 0.0 0.0 0.0 0.0 0.0 0.0 0.0 0.0 0.0 0.0 0.0 0.0
3.5 2.8 2.7 1.1 0.4 1.4 0.4 0.0 0.0 0.0 0.0 0.0 0.0 0.0 0.0 0.0 0.0 0.0 0.0 0.0 0.0 0.0 0.0 0.0 0.0 0.0 0.0
5.2 3.4 3.2 2.9 3.9 0.6 1.7 0.7 0.4 0.0 0.1 0.0 0.0 0.0 0.0 0.0 0.0 0.0 0.0 0.0 0.0 0.0 0.0 0.0 0.0 0.0 0.0
5.0 5.7 3.9 1.2 0.0 2.9 3.8 5.2 6.6 0.1 1.3 0.0 0.0 1.4 0.0 0.0 0.0 0.0 0.0 0.0 0.0 0.0 0.0 0.0 0.0 0.0 0.0
3.1 3.8 4.6 0.0 0.0 2.7 3.3 4.1 4.4 0.0 0.0 2.6 0.0 0.0 0.0 0.0 0.0 0.0 0.0 0.0 0.0 0.0 0.0 0.0 0.0 0.0 0.0
4.4 1.8 0.0 0.0 0.0 0.0 2.6 4.1 2.1 0.1 0.0 6.4 0.0 0.3 0.0 0.0 0.0 0.0 0.0 0.0 0.0 0.0 0.0 0.0 0.0 0.0 0.0
0.0 0.0 0.0 0.0 0.0 0.0 6.5 8.5 8.5 5.8 3.0 4.6 4.1 4.3 0.7 0.0 0.0 0.0 0.0 0.0 0.0 0.0 0.0 0.0 0.0 0.0 0.0
1.7 0.0 0.0 0.0 0.0 1.7 6.3 9.6 8.9 9.2 4.8 6.8 6.5 5.8 7.5 0.3 1.2 0.9 1.4 0.0 0.0 0.0 0.0 0.0 0.0 0.0 0.0
4.5 4.4 3.6 7.8 7.2 6.1 6.6 6.6 9.0 9.2 3.1 4.0 7.2 6.7 7.1 7.4 6.9 6.1 4.6 4.1 0.8 0.0 0.0 0.0 0.0 0.0 1.7
9.9 7.7 9.3 9.1 8.4 8.1 7.0 4.7 3.3 5.2 2.2 3.9 8.3 8.1 8.5 9.0 8.9 6.9 8.4 4.4 4.8 6.2 4.4 0.0 0.0 0.0 0.0
10.5 10.5 9.3 8.3 8.1 8.5 6.4 6.7 7.3 5.1 2.5 3.6 5.9 6.8 7.7 8.9 8.8 11.2 12.1 10.0 8.0 7.9 7.8 7.8 7.8 6.7 6.1
9.7 8.8 8.8 10.2 8.5 6.6 8.2 7.3 9.2 8.6 4.5 3.4 5.3 7.1 8.4 7.8 7.6 8.8 10.4 12.1 10.2 9.3 9.2 9.2 8.4 7.1 7.6
11.7 11.1 9.4 8.6 8.5 7.9 8.3 9.0 11.9 11.8 9.3 5.5 5.8 6.9 7.5 8.5 9.8 9.4 11.4 11.1 10.2 10.4 10.5 11.8 10.9 8.8 8.6
11.3 10.6 11.0 10.8 10.4 10.3 8.7 11.0 12.3 11.5 10.7 8.8 8.8 10.3 10.4 8.9 5.8 10.6 10.7 10.7 10.9 11.0 10.9 12.8 12.6 12.1 10.3
10.8 11.2 10.8 10.8 9.4 10.5 11.6 12.3 12.3 10.2 10.3 8.5 10.2 12.8 14.2 16.1 12.6 6.4 11.3 10.8 11.1 11.6 11.2 11.6 13.2 12.3 9.8